Powrót do katalogu

KSM1-A

AktywnyNaukaVLEO
NORAD 46912·PAYLOAD·🇱🇺 Luxembourg

Wystrzelony Nov 7, 2020 z Satish Dhawan Space Centre

Loading…

Następne Przeloty (najbliższe 24 godziny)

TLE

ŚwieżeSource: Space-Track

Epoka: Sep 14, 2026, 09:00 UTC

1 46912U 20081H   26257.37500369  .00006763  00000-0  25130-3 0  9994
2 46912  36.8956 230.8734 0003070 305.1793  54.8668 15.27185055322818

Śledź KSM1-A w czasie rzeczywistym z AllMySat

Download on the App Store